Surface/Precipitation History
11/27/2014 05:04  to  11/28/2014 05:04
Change End Date:
Date/Time
(MST)
Sf
Temp Chem Water Layer Surface Precipitation
Sf Sub Frz Factor Pct Depth IcePct Cond Salin Type Intens Accum Rate
11/28/2014 04:55 Wet 32.5F 31F 32F 5 0% 0.00 in 0% 0 mhos 0 None None - -
11/28/2014 04:52 Wet 32.5F 31F 32F 5 0% 0.00 in 0% 0 mhos 0 None None - -
11/28/2014 04:42 Wet 32.4F 31F 32F 5 0% 0.00 in 0% 0 mhos 0 None None - -
11/28/2014 04:32 Wet 32.2F 31F 32F 5 0% 0.00 in 0% 0 mhos 0 None None - -
11/28/2014 04:25 Ice Warning 32.0F 31F 32F 5 0% - 100% 0 mhos 0 None None - -
11/28/2014 04:22 Ice Warning 32.0F 31F 32F 5 0% - 100% 0 mhos 0 None None - -
11/28/2014 04:12 Wet 32.4F 31F 32F 5 0% 0.00 in 0% 0 mhos 0 None None - -
11/28/2014 04:02 Wet 32.4F 31F 32F 5 0% 0.00 in 0% 0 mhos 0 None None - -
11/28/2014 03:55 Wet 32.2F 31F 32F 5 0% 0.00 in 0% 0 mhos 0 None None - -
11/28/2014 03:52 Wet 32.2F 31F 32F 5 0% 0.00 in 0% 0 mhos 0 None None - -
11/28/2014 03:42 Ice Warning 32.0F 31F 32F 5 0% - 100% 0 mhos 0 None None - -
11/28/2014 03:31 Ice Warning 32.0F 31F 32F 5 0% - 100% 0 mhos 0 None None - -
11/28/2014 03:25 Ice Warning 31.8F 31F 32F 5 0% - 100% 0 mhos 0 None None - -
11/28/2014 03:21 Ice Warning 31.8F 31F 32F 5 0% - 100% 0 mhos 0 None None - -
11/28/2014 03:11 Ice Warning 31.6F 31F 32F 5 0% - 100% 0 mhos 0 None None - -
Date/Time
(MST)
Sf
Temp Chem Water Layer Surface Precipitation
Sf Sub Frz Factor Pct Depth IcePct Cond Salin Type Intens Accum Rate
11/28/2014 03:01 Ice Warning 31.5F 31F 32F 5 0% - 100% 0 mhos 0 None None - -
11/28/2014 02:55 Ice Warning 31.5F 31F 32F 5 0% - 100% 0 mhos 0 None None - -
11/28/2014 02:51 Ice Warning 31.5F 31F 32F 5 0% - 100% 0 mhos 0 None None - -
11/28/2014 02:41 Ice Warning 31.5F 31F 32F 5 0% - 100% 0 mhos 0 None None - -
11/28/2014 02:31 Ice Warning 31.5F 31F 32F 5 0% - 100% 0 mhos 0 None None - -
11/28/2014 02:25 Ice Warning 31.5F 31F 32F 5 0% - 100% 0 mhos 0 None None - -
11/28/2014 02:21 Ice Warning 31.5F 31F 32F 5 0% - 100% 0 mhos 0 None None - -
11/28/2014 02:11 Ice Warning 31.5F 31F 32F 5 0% - 100% 0 mhos 0 None None - -
11/28/2014 02:01 Ice Warning 31.6F 31F 32F 5 0% - 100% 0 mhos 0 None None - -
11/28/2014 01:55 Ice Warning 31.8F 31F 32F 5 0% - 100% 0 mhos 0 None None - -
11/28/2014 01:51 Ice Warning 31.8F 31F 32F 5 0% - 100% 0 mhos 0 None None - -
11/28/2014 01:41 Ice Warning 32.0F 31F 32F 5 0% - 100% 0 mhos 0 None None - -
11/28/2014 01:31 Ice Warning 31.6F 31F 32F 5 0% - 100% 0 mhos 0 None None - -
11/28/2014 01:25 Ice Warning 31.6F 31F 32F 5 0% - 100% 0 mhos 0 None None - -
11/28/2014 01:21 Ice Warning 31.6F 31F 32F 5 0% - 100% 0 mhos 0 None None - -
Date/Time
(MST)
Sf
Temp Chem Water Layer Surface Precipitation
Sf Sub Frz Factor Pct Depth IcePct Cond Salin Type Intens Accum Rate
11/28/2014 01:11 Ice Warning 31.6F 31F 32F 5 0% - 100% 0 mhos 0 None None - -
11/28/2014 01:01 Ice Warning 32.0F 31F 32F 5 0% - 100% 0 mhos 0 None None - -
11/28/2014 00:55 Wet 32.2F 31F 32F 5 0% 0.00 in 0% 0 mhos 0 None None - -
11/28/2014 00:51 Wet 32.2F 31F 32F 10 0% 0.00 in 0% 0 mhos 0 None None - -
11/28/2014 00:41 Wet 32.4F 31F 32F 10 0% 0.10 in 0% 0 mhos 0 None None - -
11/28/2014 00:31 Wet 32.7F 31F 32F 5 0% 0.00 in 0% 0 mhos 0 None None - -
11/28/2014 00:25 Wet 32.7F 31F 32F 5 0% 0.00 in 0% 0 mhos 0 None None - -
11/28/2014 00:21 Wet 32.7F 31F 32F 5 0% 0.00 in 0% 0 mhos 0 None None - -
11/28/2014 00:11 Wet 32.7F 31F 32F 5 0% 0.00 in 0% 0 mhos 0 None None - -
11/28/2014 00:01 Wet 32.7F 31F 32F 5 0% 0.00 in 0% 0 mhos 0 None None - -
11/27/2014 23:57 Wet 32.7F 31F 32F 5 0% 0.00 in 0% 0 mhos 0 None None - -
11/27/2014 23:51 Wet 32.7F 31F 32F 5 0% 0.00 in 0% 0 mhos 0 None None - -
11/27/2014 23:41 Wet 32.7F 31F 32F 5 0% 0.00 in 0% 0 mhos 0 None None - -
11/27/2014 23:31 Wet 32.9F 31F 32F 5 0% 0.00 in 0% 0 mhos 0 None None - -
11/27/2014 23:26 Wet 33.1F 31F 32F 5 0% 0.00 in 0% 0 mhos 0 None None - -
Date/Time
(MST)
Sf
Temp Chem Water Layer Surface Precipitation
Sf Sub Frz Factor Pct Depth IcePct Cond Salin Type Intens Accum Rate
11/27/2014 23:20 Wet 33.1F 31F 32F 5 0% 0.00 in 0% 0 mhos 0 None None - -
11/27/2014 23:10 Wet 33.3F 31F 32F 5 0% 0.00 in 0% 0 mhos 0 None None - -
11/27/2014 23:00 Wet 33.3F 31F 32F 5 0% 0.00 in 0% 0 mhos 0 None None - -
11/27/2014 22:55 Wet 33.3F 31F 32F 5 0% 0.00 in 0% 0 mhos 0 None None - -
11/27/2014 22:50 Wet 33.4F 31F 32F 5 0% 0.00 in 0% 0 mhos 0 None None - -
11/27/2014 22:40 Wet 33.3F 31F 32F 5 0% 0.00 in 0% 0 mhos 0 None None - -
11/27/2014 22:30 Wet 33.3F 31F 32F 5 0% 0.00 in 0% 0 mhos 0 None None - -
11/27/2014 22:25 Wet 33.4F 31F 32F 5 0% 0.00 in 0% 0 mhos 0 None None - -
11/27/2014 22:20 Wet 33.4F 31F 32F 5 0% 0.00 in 0% 0 mhos 0 None None - -
11/27/2014 22:10 Wet 33.8F 31F 32F 5 0% 0.00 in 0% 0 mhos 0 Yes - - -
11/27/2014 22:00 Wet 33.8F 31F 32F 5 0% 0.00 in 0% 1 mhos 0 Yes - - -
11/27/2014 21:55 Wet 33.8F 31F 32F 5 0% 0.00 in 0% 1 mhos 0 Yes - - -
11/27/2014 21:50 Wet 33.8F 31F 32F 5 0% 0.00 in 0% 1 mhos 0 Yes - - -
11/27/2014 21:40 Wet 33.8F 31F 32F 10 0% 0.00 in 0% 1 mhos 0 Yes - - -
11/27/2014 21:30 Wet 33.8F 31F 32F 25 0% 0.00 in 0% 1 mhos 0 Yes - - -
Date/Time
(MST)
Sf
Temp Chem Water Layer Surface Precipitation
Sf Sub Frz Factor Pct Depth IcePct Cond Salin Type Intens Accum Rate
11/27/2014 21:25 Wet 33.8F 31F 32F 30 0% 0.00 in 0% 1 mhos 0 Yes - - -
11/27/2014 21:20 Wet 33.8F 31F 32F 45 0% 0.00 in 0% 1 mhos 0 Yes - - -
11/27/2014 21:10 Wet 33.8F 31F 32F 75 0% 0.00 in 0% 0 mhos 0 Yes - - -
11/27/2014 21:00 Wet 33.8F 31F 32F 10 0% 0.00 in 0% 0 mhos 0 None None - -
11/27/2014 20:55 Wet 33.4F 31F 32F 15 0% 0.00 in 0% 0 mhos 0 None None - -
11/27/2014 20:50 Wet 33.6F 31F 32F 20 0% 0.00 in 0% 0 mhos 0 None None - -
11/27/2014 20:40 Wet 33.8F 31F 32F 30 0% 0.00 in 0% 0 mhos 0 None None - -
11/27/2014 20:30 Wet 33.8F 31F 32F 35 0% 0.00 in 0% 0 mhos 0 None None - -
11/27/2014 20:25 Wet 33.8F 31F 32F 35 0% 0.00 in 0% 0 mhos 0 Yes - - -
11/27/2014 20:20 Wet 33.8F 31F 32F 30 0% 0.00 in 0% 0 mhos 0 Yes - - -
11/27/2014 20:10 Wet 33.8F 31F 32F 10 0% 0.10 in 0% 0 mhos 0 None None - -
11/27/2014 20:00 Trace Moisture 33.8F 31F - 5 - - - 0 mhos 0 None None - -
11/27/2014 19:55 Trace Moisture 33.8F 31F - 5 - - - 0 mhos 0 None None - -
11/27/2014 19:49 Trace Moisture 33.6F 31F - 10 - - - 0 mhos 0 None None - -
11/27/2014 19:39 Trace Moisture 33.6F 31F - 10 - - - 0 mhos 0 None None - -
Date/Time
(MST)
Sf
Temp Chem Water Layer Surface Precipitation
Sf Sub Frz Factor Pct Depth IcePct Cond Salin Type Intens Accum Rate
11/27/2014 19:29 Trace Moisture 33.8F 31F - 10 - - - 0 mhos 0 None None - -
11/27/2014 19:25 Trace Moisture 33.8F 31F - 10 - - - 0 mhos 0 None None - -
11/27/2014 19:19 Trace Moisture 33.8F 31F - 10 - - - 0 mhos 0 None None - -
11/27/2014 19:09 Trace Moisture 33.8F 31F - 10 - - - 0 mhos 0 None None - -
11/27/2014 18:59 Trace Moisture 33.8F 31F - 10 - - - 0 mhos 0 None None - -
11/27/2014 18:55 Trace Moisture 33.8F 31F - 10 - - - 0 mhos 0 None None - -
11/27/2014 18:49 Trace Moisture 33.8F 31F - 10 - - - 0 mhos 0 None None - -
11/27/2014 18:39 Trace Moisture 33.8F 31F - 10 - - - 0 mhos 0 None None - -
11/27/2014 18:29 Trace Moisture 34.0F 31F - 10 - - - 0 mhos 0 None None - -
11/27/2014 18:25 Trace Moisture 34.2F 31F - 10 - - - 0 mhos 0 None None - -
11/27/2014 18:19 Trace Moisture 34.0F 31F - 10 - - - 0 mhos 0 None None - -
11/27/2014 18:09 Trace Moisture 34.0F 31F - 10 - - - 0 mhos 0 None None - -
11/27/2014 17:59 Trace Moisture 33.8F 31F - 5 - - - 0 mhos 0 None None - -
11/27/2014 17:55 Trace Moisture 33.8F 31F - 10 - - - 0 mhos 0 None None - -
11/27/2014 17:49 Trace Moisture 33.8F 31F - 5 - - - 0 mhos 0 None None - -
Date/Time
(MST)
Sf
Temp Chem Water Layer Surface Precipitation
Sf Sub Frz Factor Pct Depth IcePct Cond Salin Type Intens Accum Rate
11/27/2014 17:39 Trace Moisture 33.8F 31F - 5 - - - 0 mhos 0 None None - -
11/27/2014 17:29 Trace Moisture 33.8F 31F - 5 - - - 0 mhos 0 None None - -
11/27/2014 17:25 Trace Moisture 33.8F 31F - 5 - - - 0 mhos 0 None None - -
11/27/2014 17:19 Trace Moisture 33.8F 31F - 5 - - - 0 mhos 0 None None - -
11/27/2014 17:09 Trace Moisture 34.2F 31F - 5 - - - 0 mhos 0 None None - -
11/27/2014 16:59 Trace Moisture 34.5F 31F - 5 - - - 0 mhos 0 None None - -
11/27/2014 16:55 Trace Moisture 34.5F 31F - 5 - - - 0 mhos 0 None None - -
11/27/2014 16:49 Trace Moisture 34.7F 31F - 5 - - - 0 mhos 0 None None - -
11/27/2014 16:39 Trace Moisture 35.1F 31F - 5 - - - 0 mhos 0 None None - -
11/27/2014 16:29 Trace Moisture 35.6F 31F - 5 - - - 0 mhos 0 None None - -
11/27/2014 16:25 Trace Moisture 35.6F 31F - 5 - - - 0 mhos 0 None None - -
11/27/2014 16:19 Trace Moisture 36.0F 31F - 5 - - - 0 mhos 0 None None - -
11/27/2014 16:08 Trace Moisture 36.3F 31F - 5 - - - 0 mhos 0 None None - -
11/27/2014 15:58 Dry 36.7F 31F - - - - - 0 mhos 0 None None - -
11/27/2014 15:55 Dry 37.0F 31F - - - - - 0 mhos 0 None None - -
Date/Time
(MST)
Sf
Temp Chem Water Layer Surface Precipitation
Sf Sub Frz Factor Pct Depth IcePct Cond Salin Type Intens Accum Rate
11/27/2014 15:48 Dry 37.6F 31F - - - - - 0 mhos 0 None None - -
11/27/2014 15:38 Dry 38.3F 31F - - - - - 0 mhos 0 None None - -
11/27/2014 15:28 Dry 38.7F 31F - - - - - 0 mhos 0 None None - -
11/27/2014 15:25 Dry 38.7F 31F - - - - - 0 mhos 0 None None - -
11/27/2014 15:18 Dry 38.8F 31F - - - - - 0 mhos 0 None None - -
11/27/2014 15:08 Dry 39.0F 31F - - - - - 0 mhos 0 None None - -
11/27/2014 14:58 Dry 39.2F 31F - - - - - 0 mhos 0 None None - -
11/27/2014 14:55 Dry 39.7F 31F - - - - - 0 mhos 0 None None - -
11/27/2014 14:48 Dry 41.4F 31F - - - - - 0 mhos 0 None None - -
11/27/2014 14:38 Dry 45.0F 31F - - - - - 0 mhos 0 None None - -
11/27/2014 14:28 Dry 44.4F 31F - - - - - 0 mhos 0 None None - -
11/27/2014 14:25 Dry 43.2F 31F - - - - - 0 mhos 0 None None - -
11/27/2014 14:18 Dry 41.2F 31F - - - - - 0 mhos 0 None None - -
11/27/2014 14:08 Dry 43.3F 31F - - - - - 0 mhos 0 None None - -
11/27/2014 13:58 Dry 44.8F 31F - - - - - 0 mhos 0 None None - -
Date/Time
(MST)
Sf
Temp Chem Water Layer Surface Precipitation
Sf Sub Frz Factor Pct Depth IcePct Cond Salin Type Intens Accum Rate
11/27/2014 13:55 Dry 45.1F 31F - - - - - 0 mhos 0 None None - -
11/27/2014 13:48 Dry 46.6F 31F - - - - - 0 mhos 0 None None - -
11/27/2014 13:38 Dry 46.4F 31F - - - - - 0 mhos 0 None None - -
11/27/2014 13:28 Dry 46.4F 31F - - - - - 0 mhos 0 None None - -
11/27/2014 13:25 Dry 46.2F 31F - - - - - 0 mhos 0 None None - -
11/27/2014 13:18 Dry 46.6F 31F - - - - - 0 mhos 0 None None - -
11/27/2014 13:08 Dry 46.6F 31F - - - - - 0 mhos 0 None None - -
11/27/2014 12:58 Dry 45.5F 31F - - - - - 0 mhos 0 None None - -
11/27/2014 12:55 Dry 45.5F 31F - - - - - 0 mhos 0 None None - -
11/27/2014 12:47 Dry 45.3F 31F - - - - - 0 mhos 0 None None - -
11/27/2014 12:37 Dry 45.1F 31F - - - - - 0 mhos 0 None None - -
11/27/2014 12:27 Dry 45.0F 31F - - - - - 0 mhos 0 None None - -
11/27/2014 12:25 Dry 45.0F 31F - - - - - 0 mhos 0 None None - -
11/27/2014 12:17 Dry 44.8F 31F - - - - - 0 mhos 0 None None - -
11/27/2014 12:07 Dry 44.6F 31F - - - - - 0 mhos 0 None None - -
Date/Time
(MST)
Sf
Temp Chem Water Layer Surface Precipitation
Sf Sub Frz Factor Pct Depth IcePct Cond Salin Type Intens Accum Rate
11/27/2014 11:57 Dry 44.1F 31F - - - - - 0 mhos 0 None None - -
11/27/2014 11:55 Dry 43.9F 31F - - - - - 0 mhos 0 None None - -
11/27/2014 11:47 Dry 43.9F 31F - - - - - 0 mhos 0 None None - -
11/27/2014 11:37 Dry 43.5F 31F - - - - - 0 mhos 0 None None - -
11/27/2014 11:27 Dry 42.4F 31F - - - - - 0 mhos 0 None None - -
11/27/2014 11:25 Dry 42.3F 31F - - - - - 0 mhos 0 None None - -
11/27/2014 11:17 Dry 41.2F 31F - - - - - 0 mhos 0 None None - -
11/27/2014 11:07 Dry 41.0F 31F - - - - - 0 mhos 0 None None - -
11/27/2014 10:57 Trace Moisture 39.0F 31F - 5 - - - 0 mhos 0 None None - -
11/27/2014 10:55 Trace Moisture 37.9F 31F - 5 - - - 0 mhos 0 None None - -
11/27/2014 10:47 Trace Moisture 37.4F 31F - 5 - - - 0 mhos 0 None None - -
11/27/2014 10:37 Trace Moisture 38.8F 31F - 5 - - - 0 mhos 0 None None - -
11/27/2014 10:27 Trace Moisture 38.5F 31F - 5 - - - 0 mhos 0 None None - -
11/27/2014 10:25 Trace Moisture 37.4F 31F - 5 - - - 0 mhos 0 None None - -
11/27/2014 10:17 Trace Moisture 36.7F 31F - 5 - - - 0 mhos 0 None None - -
Date/Time
(MST)
Sf
Temp Chem Water Layer Surface Precipitation
Sf Sub Frz Factor Pct Depth IcePct Cond Salin Type Intens Accum Rate
11/27/2014 10:07 Trace Moisture 35.2F 31F - 5 - - - 0 mhos 0 None None - -
11/27/2014 09:57 Trace Moisture 34.3F 31F - 10 - - - 0 mhos 0 None None - -
11/27/2014 09:55 Trace Moisture 34.2F 31F - 15 - - - 0 mhos 0 None None - -
11/27/2014 09:47 Trace Moisture 33.8F 31F - 5 - - - 0 mhos 0 None None - -
11/27/2014 09:37 Trace Moisture 33.6F 31F - 5 - - - 0 mhos 0 None None - -
11/27/2014 09:27 Trace Moisture 32.7F 31F - 15 - - - 0 mhos 0 None None - -
11/27/2014 09:25 Trace Moisture 32.5F 31F - 15 - - - 0 mhos 0 None None - -
11/27/2014 09:17 Trace Moisture 32.2F 31F - 20 - - - 0 mhos 0 None None - -
11/27/2014 09:07 Ice Watch 31.8F 31F - 25 - - - 0 mhos 0 None None - -
11/27/2014 08:57 Ice Watch 31.6F 31F - 20 - - - 0 mhos 0 None None - -
11/27/2014 08:55 Ice Watch 31.6F 31F - 20 - - - 0 mhos 0 None None - -
11/27/2014 08:47 Ice Watch 31.5F 31F - 20 - - - 0 mhos 0 None None - -
11/27/2014 08:37 Ice Watch 31.1F 31F - 20 - - - 0 mhos 0 None None - -
11/27/2014 08:27 Ice Watch 30.9F 31F - 20 - - - 0 mhos 0 None None - -
11/27/2014 08:25 Ice Watch 30.9F 31F - 20 - - - 0 mhos 0 None None - -
Date/Time
(MST)
Sf
Temp Chem Water Layer Surface Precipitation
Sf Sub Frz Factor Pct Depth IcePct Cond Salin Type Intens Accum Rate
11/27/2014 08:17 Ice Watch 30.6F 31F - 20 - - - 0 mhos 0 None None - -
11/27/2014 08:07 Ice Watch 30.2F 31F - 15 - - - 0 mhos 0 None None - -
11/27/2014 07:57 Ice Watch 30.0F 31F - 15 - - - 0 mhos 0 None None - -
11/27/2014 07:56 Ice Watch 30.2F 31F - 15 - - - 0 mhos 0 None None - -
11/27/2014 07:46 Ice Watch 30.0F 31F - 15 - - - 0 mhos 0 None None - -
11/27/2014 07:36 Ice Watch 29.8F 31F - 15 - - - 0 mhos 0 None None - -
11/27/2014 07:26 Ice Watch 29.7F 31F - 15 - - - 0 mhos 0 None None - -
11/27/2014 07:25 Ice Watch 29.7F 31F - 15 - - - 0 mhos 0 None None - -
11/27/2014 07:16 Ice Watch 29.5F 31F - 15 - - - 0 mhos 0 None None - -
11/27/2014 07:06 Ice Watch 29.5F 31F - 15 - - - 0 mhos 0 None None - -
11/27/2014 06:56 Ice Watch 29.5F 31F - 10 - - - 0 mhos 0 None None - -
11/27/2014 06:55 Ice Watch 29.3F 31F - 10 - - - 0 mhos 0 None None - -
11/27/2014 06:46 Ice Watch 29.3F 31F - 10 - - - 0 mhos 0 None None - -
11/27/2014 06:36 Ice Watch 29.5F 31F - 10 - - - 0 mhos 0 None None - -
11/27/2014 06:26 Ice Watch 29.5F 31F - 15 - - - 0 mhos 0 None None - -
Date/Time
(MST)
Sf
Temp Chem Water Layer Surface Precipitation
Sf Sub Frz Factor Pct Depth IcePct Cond Salin Type Intens Accum Rate
11/27/2014 06:25 Ice Watch 29.5F 31F - 15 - - - 0 mhos 0 None None - -
11/27/2014 06:16 Ice Watch 29.5F 31F - 15 - - - 0 mhos 0 None None - -
11/27/2014 06:06 Ice Watch 29.5F 31F - 15 - - - 0 mhos 0 None None - -
11/27/2014 05:56 Ice Watch 29.5F 31F - 15 - - - 0 mhos 0 None None - -
11/27/2014 05:55 Ice Watch 29.5F 31F - 15 - - - 0 mhos 0 None None - -
11/27/2014 05:46 Ice Watch 29.3F 31F - 10 - - - 0 mhos 0 None None - -
11/27/2014 05:36 Ice Watch 29.5F 31F - 10 - - - 0 mhos 0 None None - -
11/27/2014 05:26 Ice Watch 29.5F 31F - 15 - - - 0 mhos 0 None None - -
11/27/2014 05:25 Ice Watch 29.5F 31F - 15 - - - 0 mhos 0 None None - -
11/27/2014 05:16 Ice Watch 29.7F 31F - 15 - - - 0 mhos 0 None None - -
11/27/2014 05:06 Ice Watch 29.7F 31F - 15 - - - 0 mhos 0 None None - -
Change End Date:
Copyright © 1998-2005 Surface Systems, Inc.
All Rights Reserved
Send comments about the data to:
SCAN Web ® is a registered trademark of Surface Systems, Inc.
SCAN Web Version 5.6